スワン彗星

C/2023 A2 ( SWAN )

English version
Home page
Updated on May 28, 2023

---------------------------------------------------------------------

・ プロフィール

発見日 2023年1月6日
発見光度 12等
発見者 Vladimir Bezugly (Dnipro, Ukraine)

・ 写真集

・ 軌道要素

Epoch 2023 Feb. 25.0 TT = JDT 2460000.5
T 2023 Jan. 20.38316 TT                                 Rudenko
q   0.9473094            (2000.0)            P               Q
z  +0.0020496      Peri.  142.56992     +0.11160775     -0.01762965
 +/-0.0001217      Node    94.46856     -0.96373780     -0.24579619
e   0.9980584      Incl.   94.70834     +0.24239051     -0.96916120
>From 66 observations 2023 Feb. 14-Apr. 17, mean residual 0".7.

・ 星図

・ 光度変化

        m1 = 11.0 + 5 logΔ + 20.0 log r

---------------------------------------------------------------------

軌道要素はM.P.E.C. 2023-H131に掲載されたものです。
星図はステラナビゲータ Ver.10 (アストロアーツ) で作成したものです。
光度グラフはComet for Windowsで作成したものです。

---------------------------------------------------------------------

Copyright(C) Seiichi Yoshida (comet@aerith.net). All rights reserved.